Regional Weather Roundup
Issued by NWS

Home | Current Version | Previous Version | Graphics & Text | Print | Product List | Glossary On
Versions: 1 2 3 4 5 6 7 8 9 10 11 12 13 14 15 16 17 18 19 20 21 22 23 24 25 26 27 28 29 30 31 32 33 34 35 36 37 38 39 40 41 42 43 44 45 46 47 48 49 50
000
ASUS43 KDMX 290101
RWRIA

WEATHER ROUNDUP FOR IOWA
NATIONAL WEATHER SERVICE DES MOINES IA
800 PM CDT FRI JUL 28 2017

NOTE: "FAIR" INDICATES FEW OR NO CLOUDS BELOW 12,000 FEET WITH NO
SIGNIFICANT WEATHER AND/OR OBSTRUCTIONS TO VISIBILITY.

* - THESE STATIONS ARE NOT NWS STATIONS...THUS NOT UNDER NWS
QUALITY CONTROL.  THEY ALSO DO NOT REPORT WEATHER SUCH
AS PRECIPITATION OR FOG.

IAZ001>003-012>014-020>022-031>034-043>046-290200-
   NORTHWEST IOWA

CITY           SKY/WX    TMP DP  RH WIND       PRES   REMARKS
CARROLL *      CLEAR     77  68  73 CALM      30.02S
CHEROKEE *     CLOUDY    80  62  54 E3        30.04S HX  81
DENISON *      CLOUDY    77  66  69 CALM      30.05R
ORANGE CITY *  CLEAR     79  63  57 E5        30.06S HX  80
SHELDON *      PTCLDY    75  64  69 E5        30.05S
SIOUX CITY     CLEAR     79  59  50 E6        30.03S HX  80
SPENCER        CLOUDY    79  64  60 NE5       30.06S HX  81
STORM LAKE *   PTCLDY    73  64  73 E5        30.06R
$$

IAZ055>058-069>071-079>083-090>094-290200-
   SOUTHWEST IOWA

CITY           SKY/WX    TMP DP  RH WIND       PRES   REMARKS
ATLANTIC *     CLOUDY    79  66  65 NE5       30.02S HX  81
AUDUBON *      CLOUDY    75  68  78 CALM      30.04S
CLARINDA *     PTCLDY    81  70  69 NE5       30.02S HX  84
COUNCIL BLFS * MOCLDY    75  70  83 NE3       30.02S
CRESTON *      CLEAR     77  61  57 NE7       30.03S
HARLAN  *      CLOUDY    77  66  69 CALM      30.06S
LAMONI         PTCLDY    80  61  52 E5        30.00S HX  81
RED OAK *      CLOUDY    77  68  73 NE6       30.01S
SHENANDOAH *   CLEAR     79  72  78 MISG      30.00S HX  82
$$

IAZ047>049-059>061-072>074-084-290200-
   CENTRAL IOWA

CITY           SKY/WX    TMP DP  RH WIND       PRES   REMARKS
AMES           PTCLDY    78  65  63 E7        30.02S HX  80
ANKENY *       CLEAR     77  64  65 E5        30.02F
BOONE *        PTCLDY    77  64  65 E6        30.03R
CHARITON *     CLEAR     79  61  53 NE7G13    30.01S HX  80
DES MOINES     PTCLDY    81  62  52 E6        30.00S HX  82
GRINNELL*      CLEAR     74  63  66 NE6       30.03S
KNOXVILLE *    CLEAR     81  61  50 E6        30.00S HX  81
MARSHALLTOWN   PTCLDY    77  66  68 NE5       30.03R
NEWTON *       CLEAR     79  63  57 E7        30.02S HX  80
PELLA *        CLEAR     80  59  49 NE3       30.02S HX  81
PERRY *          N/A     77  70  78 E3        30.02F
$$

IAZ004>006-015-016-023>025-035-036-290200-
   NORTH CENTRAL IOWA

CITY           SKY/WX    TMP DP  RH WIND       PRES   REMARKS
ALGONA *       CLOUDY    77  64  65 NE8       30.06S
CLARION *      PTCLDY    73  68  83 E5        30.05S
ESTHERVILLE    PTCLDY    74  66  76 E5        30.06S
FORT DODGE *   CLOUDY    77  61  57 NE7       30.05S
MASON CITY     CLOUDY    74  65  73 E6        30.07S
FOREST CITY *    N/A     77  63  61 NE3       30.06F
WEBSTER CITY * MOCLDY    79  61  53 NE7       30.02S HX  80
IOWA FALLS *     N/A     77  65  67 NE3       30.06S
$$

IAZ007>011-017>019-026>030-037>042-050>054-066-290200-
   NORTHEAST IOWA

CITY           SKY/WX    TMP DP  RH WIND       PRES   REMARKS
CEDAR RAPIDS   CLEAR     74  60  61 E10       30.02S
CHARLES CITY * PTCLDY    75  59  57 NE6       30.06S
DECORAH *      CLEAR     73  55  53 NE5       30.06S
DUBUQUE        CLEAR     72  59  63 NE5       30.05F
MONTICELLO *   CLEAR     72  61  68 CALM      30.04S
OELWEIN *      CLEAR     72  61  68 NE8       30.05F
WATERLOO       CLEAR     73  61  65 NE8       30.03S
$$

IAZ064-065-067-068-078-290200-
   EAST CENTRAL IOWA

CITY           SKY/WX    TMP DP  RH WIND       PRES   REMARKS
DAVENPORT      CLEAR     72  59  63 NE7       30.04S
IOWA CITY      CLEAR     77  59  53 NE10      30.03S
MUSCATINE *    CLEAR     73  59  60 NE9       30.01S
QUAD CITIES    CLEAR     76  55  48 NE8       30.01S
$$

IAZ062-063-075>077-085>089-095>099-290200-
   SOUTHEAST IOWA

CITY           SKY/WX    TMP DP  RH WIND       PRES   REMARKS
BURLINGTON     CLEAR     76  62  62 NE8       30.00S
FAIRFIELD *    PTCLDY    75  61  60 NE6       30.00F
FORT MADISON * CLEAR     73  63  68 NE5       30.01S
KEOKUK *       CLEAR     77  61  57 NE6       29.99S
OSKALOOSA *      N/A     76  62  60 NE3       30.01S
OTTUMWA        CLEAR     79  61  53 E7        30.00F HX  80
WASHINGTON *   CLEAR     73  63  68 NE7       30.02S
$$

ABBREVIATIONS USED IN REMARKS
   TC - TEMPERATURES IN CELSIUS
  WCI - WIND CHILL INDEX
   HX - HEAT INDEX
  VSB - VISIBILITY
$$





USA.gov is the U.S. government's official web portal to all federal, state and local government web resources and services.